Estación municipal de Susqueda - St. Martí Sacalm (La Selva, )

Consulta los datos en tiempo real de la estación municipal de Susqueda - St. Martí Sacalm





Hora UTC 03:55
Temperatura 19.6 ºC
Humedad 74.8 %
Presión 1024.4 hPa
Pluja 0.0 mm
Velocidad viento 8.0 km/h
Dirección viento SSW
Radiación solar 0.1 W/m²

Datos diarios 2026-09-03



Hora UTC (invierno +1h; verano +2h)
Temperatura (ºC) Humedad (%) Presión (hPa) Velocidad viento (km/h) Precipitación (mm) Radiación solar (W/m²)
Hora UTC Aire Humedad Presión Vel. Dir. Vel. Max Dir. Intent. máx 5 min. Rad. Sol.
00:05 21.9 63.9 1024.9 4.5 SW 4.5 SW 0.0 0.1
00:10 21.6 66.2 1024.9 5.6 SW 8.1 SW 0.0 0.1
00:15 21.3 67.5 1024.9 5.4 SW 6.7 SSW 0.0 0.1
00:20 21.1 67.9 1024.9 4.4 SW 5.7 SSW 0.0 0.2
00:25 21.0 67.9 1024.9 2.9 SW 6.0 SW 0.0 0.1
00:30 20.9 68.3 1024.9 2.2 SW 6.4 SW 0.0 0.1
00:35 21.0 67.4 1024.9 5.4 SW 7.1 SW 0.0 0.1
00:40 20.8 68.6 1025.0 6.0 SSW 8.1 SSW 0.0 0.1
00:45 20.6 69.2 1025.0 8.1 SSW 10.6 SSW 0.0 0.1
00:50 20.4 69.9 1024.9 7.9 SSW 9.5 SSW 0.0 0.1
00:55 20.3 70.2 1024.9 2.9 SSW 8.5 SSW 0.0 0.1
01:00 20.0 70.9 1024.9 7.3 SSW 9.2 S 0.0 0.1
01:05 19.9 71.2 1024.9 8.3 SSW 11.0 SSW 0.0 0.1
01:10 19.9 71.2 1024.9 8.3 SSW 11.0 SW 0.0 0.1
01:15 20.0 71.1 1024.9 8.1 SSW 9.9 SSW 0.0 0.1
01:20 20.0 71.0 1024.8 9.6 SW 11.3 SW 0.0 0.2
01:25 20.1 71.1 1024.8 9.3 SW 10.6 SW 0.0 0.1
01:30 20.1 71.0 1024.8 8.4 SSW 9.5 SW 0.0 0.1
01:35 20.1 71.2 1024.8 7.8 SSW 9.5 SSW 0.0 0.1
01:40 20.1 70.8 1024.9 6.6 SSW 8.8 SSW 0.0 0.1
01:45 20.1 70.8 1024.9 5.3 SSW 7.1 SSW 0.0 0.1
01:50 20.1 71.1 1024.8 6.6 SSW 9.5 SSW 0.0 0.1
01:55 20.0 71.3 1024.8 6.9 SSW 8.8 SSW 0.0 0.1
02:00 19.8 71.7 1024.8 6.6 SSW 8.1 SSW 0.0 0.1
02:05 19.7 72.1 1024.8 6.5 SSW 8.8 SSW 0.0 0.1
02:10 19.7 71.8 1024.7 7.3 SSW 9.9 SSW 0.0 0.1
02:15 19.7 71.7 1024.7 7.5 SSW 10.6 SSW 0.0 0.1
02:20 19.7 72.0 1024.7 9.5 SSW 13.4 SW 0.0 0.1
02:25 19.9 72.0 1024.6 11.0 SSW 14.5 SSW 0.0 0.1
02:30 19.7 72.6 1024.6 10.8 SSW 15.5 SSW 0.0 0.1
02:35 19.7 73.2 1024.6 13.3 SW 16.6 SW 0.0 0.1
02:40 19.7 73.2 1024.6 11.9 SW 15.2 SW 0.0 0.1
02:45 19.4 74.1 1024.6 11.5 SW 14.5 SW 0.0 0.1
02:50 19.2 74.7 1024.6 10.2 SSW 13.1 SW 0.0 0.1
02:55 19.0 75.1 1024.6 10.3 SW 12.0 SW 0.0 0.2
03:00 19.0 74.9 1024.5 11.3 SW 15.5 SSW 0.0 0.1
03:05 19.2 74.2 1024.6 11.3 SW 14.1 SW 0.0 0.1
03:10 19.2 74.1 1024.5 11.3 SW 13.4 SW 0.0 0.1
03:15 19.2 74.5 1024.5 11.3 SW 13.8 SSW 0.0 0.1
03:20 19.2 74.7 1024.5 10.7 SW 12.7 SW 0.0 0.1
03:25 19.2 74.9 1024.4 12.0 SW 14.8 SW 0.0 0.1
03:30 19.3 75.1 1024.4 12.6 SW 15.5 SW 0.0 0.1
03:35 19.2 75.1 1024.4 11.7 SW 14.1 SSW 0.0 0.1
03:40 19.3 75.2 1024.3 10.9 SW 13.1 SSW 0.0 0.1
03:45 19.2 75.6 1024.4 8.4 SW 11.3 SW 0.0 0.1
03:50 19.4 75.5 1024.5 6.2 SW 8.8 WSW 0.0 0.1
03:55 19.6 74.8 1024.4 8.0 SSW 9.5 SSW 0.0 0.1
Máxima 21.9 75.6 1025.0 13.3 SW 16.6 SW 0.0 0.2
Mínima 19.0 63.9 1024.3
Total 0.0